RCH117 KLSV-KNZY

Flight info

Callsign RCH117
Flight time 0h 56m
Altitude 24000
Route LAS V538 GFS/N0321F160 V514 TNP/N0425F380 MOMAR CHASR2
Aircraft C17/H-SDE1E2FGHIJ5RTUWXY/LB1D1

Departure

Time 2026-04-29 01:34
Airport Nellis Air Force Base (KLSV)

Arrival

Time 2026-04-29 02:30
Airport North Island Naval Air Station-Halsey Field (KNZY)
Time Latitude Longitude Altitude Speed Heading
2026-04-29 01:23 36.23661 -115.03984 1846 ft 0 kts 120°
2026-04-29 01:26 36.23642 -115.03932 1846 ft 11 kts 103°
2026-04-29 01:26 36.23672 -115.03835 1848 ft 12 kts 44°
2026-04-29 01:27 36.23749 -115.03757 1847 ft 18 kts 38°
2026-04-29 01:27 36.23856 -115.03637 1847 ft 23 kts 45°
2026-04-29 01:27 36.23978 -115.03486 1848 ft 27 kts 45°
2026-04-29 01:27 36.24129 -115.03334 1853 ft 19 kts 35°
2026-04-29 01:28 36.24237 -115.03232 1855 ft 19 kts 38°
2026-04-29 01:28 36.24337 -115.03163 1860 ft 14 kts 13°
2026-04-29 01:28 36.24435 -115.03135 1863 ft 15 kts 13°
2026-04-29 01:28 36.24532 -115.03126 1864 ft 14 kts
2026-04-29 01:29 36.24634 -115.03124 1866 ft 15 kts
2026-04-29 01:29 36.24717 -115.03105 1870 ft 8 kts 43°
2026-04-29 01:29 36.24730 -115.03047 1869 ft 7 kts 93°
2026-04-29 01:29 36.24726 -115.02954 1863 ft 14 kts 92°
2026-04-29 01:30 36.24723 -115.02804 1864 ft 20 kts 92°
2026-04-29 01:30 36.24718 -115.02621 1863 ft 19 kts 92°
2026-04-29 01:30 36.24718 -115.02601 1863 ft 0 kts 92°
2026-04-29 01:30 36.24718 -115.02594 1863 ft 3 kts 92°
2026-04-29 01:31 36.24717 -115.02551 1864 ft 7 kts 91°
2026-04-29 01:31 36.24705 -115.02514 1862 ft 3 kts 146°
2026-04-29 01:31 36.24689 -115.02512 1859 ft 3 kts 186°
2026-04-29 01:31 36.24664 -115.02523 1864 ft 0 kts 220°
2026-04-29 01:32 36.24646 -115.02543 1863 ft 7 kts 221°
2026-04-29 01:32 36.24641 -115.02549 1860 ft 0 kts 221°
2026-04-29 01:32 36.24638 -115.02552 1862 ft 9 kts 221°
2026-04-29 01:32 36.24425 -115.02782 1862 ft 70 kts 221°
2026-04-29 01:33 36.23933 -115.03313 1851 ft 118 kts 221°
2026-04-29 01:33 36.23212 -115.04090 1842 ft 152 kts 221°
2026-04-29 01:33 36.22387 -115.04986 2058 ft 163 kts 221°
2026-04-29 01:33 36.21446 -115.06025 2010 ft 201 kts 222°
2026-04-29 01:34 36.20429 -115.07229 2524 ft 202 kts 228°
2026-04-29 01:34 36.19605 -115.08686 3061 ft 210 kts 246°
2026-04-29 01:34 36.19101 -115.10438 3504 ft 223 kts 252°
2026-04-29 01:34 36.18622 -115.12301 3966 ft 235 kts 253°
2026-04-29 01:35 36.18237 -115.14340 4496 ft 239 kts 252°
2026-04-29 01:35 36.17593 -115.16022 5789 ft 208 kts 226°
2026-04-29 01:35 36.16871 -115.16808 6145 ft 213 kts 211°
2026-04-29 01:35 36.14935 -115.17547 6646 ft 229 kts 185°
2026-04-29 01:36 36.13865 -115.17547 6919 ft 234 kts 180°
2026-04-29 01:36 36.12215 -115.17621 7406 ft 239 kts 191°
2026-04-29 01:36 36.10034 -115.17890 8334 ft 236 kts 185°
2026-04-29 01:36 36.08930 -115.17963 8802 ft 235 kts 184°
2026-04-29 01:37 36.07334 -115.18182 9449 ft 233 kts 191°
2026-04-29 01:37 36.05735 -115.18538 10104 ft 232 kts 194°
2026-04-29 01:37 36.04163 -115.18992 10670 ft 232 kts 198°
2026-04-29 01:37 36.02581 -115.19444 11131 ft 238 kts 193°
2026-04-29 01:38 36.00908 -115.19728 11652 ft 243 kts 191°
2026-04-29 01:38 35.99208 -115.19979 12189 ft 246 kts 191°
2026-04-29 01:38 35.97516 -115.20231 12721 ft 249 kts 191°
2026-04-29 01:38 35.95784 -115.20473 13271 ft 251 kts 191°
2026-04-29 01:39 35.94038 -115.20699 13815 ft 252 kts 191°
2026-04-29 01:39 35.92288 -115.20841 14296 ft 256 kts 185°
2026-04-29 01:39 35.90491 -115.20699 14788 ft 258 kts 181°
2026-04-29 01:39 35.88700 -115.20569 15316 ft 256 kts 186°
2026-04-29 01:40 35.86932 -115.20538 15828 ft 256 kts 186°
2026-04-29 01:40 35.85145 -115.20462 16346 ft 256 kts 185°
2026-04-29 01:40 35.83378 -115.20376 16845 ft 255 kts 186°
2026-04-29 01:40 35.81598 -115.20322 17346 ft 254 kts 186°
2026-04-29 01:41 35.79831 -115.20251 17814 ft 254 kts 186°
2026-04-29 01:41 35.78084 -115.20178 18240 ft 253 kts 187°
2026-04-29 01:41 35.76313 -115.20108 18681 ft 253 kts 187°
2026-04-29 01:41 35.74557 -115.20042 19078 ft 252 kts 187°
2026-04-29 01:42 35.72810 -115.19973 19452 ft 251 kts 187°
2026-04-29 01:42 35.71077 -115.19902 19816 ft 251 kts 188°
2026-04-29 01:42 35.69326 -115.19838 20188 ft 250 kts 188°
2026-04-29 01:42 35.67578 -115.19768 20556 ft 250 kts 188°
2026-04-29 01:43 35.65857 -115.19701 20908 ft 250 kts 188°
2026-04-29 01:43 35.64117 -115.19625 21271 ft 249 kts 189°
2026-04-29 01:43 35.62375 -115.19568 21620 ft 248 kts 189°
2026-04-29 01:43 35.60649 -115.19497 21956 ft 249 kts 189°
2026-04-29 01:44 35.58928 -115.19422 22299 ft 248 kts 190°
2026-04-29 01:44 35.57199 -115.19362 22614 ft 248 kts 190°
2026-04-29 01:44 35.55465 -115.19294 22943 ft 248 kts 190°
2026-04-29 01:44 35.53750 -115.19221 23253 ft 247 kts 191°
2026-04-29 01:45 35.52039 -115.19159 23531 ft 247 kts 191°
2026-04-29 01:45 35.50307 -115.19094 23765 ft 247 kts 191°
2026-04-29 01:45 35.48606 -115.19021 23997 ft 247 kts 191°
2026-04-29 01:45 35.46883 -115.18956 24207 ft 246 kts 192°
2026-04-29 01:46 35.45157 -115.18892 24416 ft 248 kts 192°
2026-04-29 01:46 35.43404 -115.18832 24359 ft 259 kts 191°
2026-04-29 01:46 35.41571 -115.18755 24413 ft 269 kts 191°
2026-04-29 01:46 35.39642 -115.18693 24320 ft 284 kts 191°
2026-04-29 01:47 35.37858 -115.18630 24260 ft 299 kts 189°
2026-04-29 01:47 35.37298 -115.18607 24237 ft 304 kts 189°
2026-04-29 01:47 35.36920 -115.18591 24212 ft 308 kts 189°
2026-04-29 01:48 35.36238 -115.18560 24169 ft 314 kts 189°
2026-04-29 01:48 35.35946 -115.18547 24154 ft 316 kts 189°
2026-04-29 01:48 35.34511 -115.18483 24076 ft 327 kts 189°
2026-04-29 01:48 35.32189 -115.18404 24097 ft 340 kts 188°
2026-04-29 01:49 35.29792 -115.18316 24087 ft 354 kts 188°
2026-04-29 01:49 35.27265 -115.18201 24084 ft 368 kts 187°
2026-04-29 01:49 35.24679 -115.18061 24075 ft 382 kts 186°
2026-04-29 01:49 35.21966 -115.17892 24070 ft 395 kts 186°
2026-04-29 01:50 35.19206 -115.17697 24050 ft 408 kts 185°
2026-04-29 01:50 35.16313 -115.17469 24040 ft 420 kts 184°
2026-04-29 01:50 35.13378 -115.17211 24035 ft 431 kts 184°
2026-04-29 01:50 35.10377 -115.16920 24032 ft 441 kts 183°
2026-04-29 01:51 35.07264 -115.16591 24027 ft 451 kts 182°
2026-04-29 01:51 35.04132 -115.16231 24025 ft 460 kts 182°
2026-04-29 01:51 35.00905 -115.15829 24021 ft 468 kts 181°
2026-04-29 01:51 34.97678 -115.15874 23989 ft 456 kts 199°
2026-04-29 01:52 34.94830 -115.17392 24027 ft 443 kts 221°
2026-04-29 01:52 34.92590 -115.19900 24007 ft 444 kts 228°
2026-04-29 01:52 34.90346 -115.22547 24003 ft 449 kts 226°
2026-04-29 01:52 34.88091 -115.24949 23996 ft 416 kts 223°
2026-04-29 01:53 34.85800 -115.26915 23973 ft 388 kts 217°
2026-04-29 01:53 34.83591 -115.28552 23974 ft 364 kts 217°
2026-04-29 01:53 34.81480 -115.30250 23983 ft 364 kts 221°
2026-04-29 01:53 34.79405 -115.32099 23985 ft 374 kts 219°
2026-04-29 01:54 34.77078 -115.33540 24003 ft 384 kts 207°
2026-04-29 01:54 34.74541 -115.34634 23989 ft 385 kts 207°
2026-04-29 01:54 34.72019 -115.35767 23991 ft 384 kts 207°
2026-04-29 01:54 34.69990 -115.36670 23967 ft 387 kts 206°
2026-04-29 01:55 34.69763 -115.36768 23977 ft 387 kts 206°
2026-04-29 01:55 34.69492 -115.36885 23975 ft 388 kts 206°
2026-04-29 01:55 34.69205 -115.37008 23974 ft 389 kts 206°
2026-04-29 01:55 34.69048 -115.37076 23974 ft 389 kts 206°
2026-04-29 01:56 34.68846 -115.37162 23976 ft 389 kts 206°
2026-04-29 01:56 34.68308 -115.37392 23970 ft 390 kts 206°
2026-04-29 01:56 34.67710 -115.37648 23977 ft 390 kts 206°
2026-04-29 01:56 34.66086 -115.38346 23963 ft 389 kts 206°
2026-04-29 01:57 34.65740 -115.38496 23962 ft 389 kts 206°
2026-04-29 01:57 34.63197 -115.39611 23968 ft 387 kts 207°
2026-04-29 01:57 34.60682 -115.40720 23969 ft 387 kts 206°
2026-04-29 01:58 34.58128 -115.41835 23967 ft 389 kts 206°
2026-04-29 01:58 34.55572 -115.42948 23959 ft 388 kts 206°
2026-04-29 01:58 34.53058 -115.44046 23958 ft 388 kts 206°
2026-04-29 01:58 34.50509 -115.45158 23958 ft 387 kts 206°
2026-04-29 01:59 34.47963 -115.46266 23961 ft 388 kts 206°
2026-04-29 01:59 34.45449 -115.47360 23943 ft 388 kts 206°
2026-04-29 01:59 34.42892 -115.48476 23966 ft 391 kts 207°
2026-04-29 01:59 34.40323 -115.49593 23968 ft 392 kts 206°
2026-04-29 02:00 34.37754 -115.50707 23968 ft 390 kts 206°
2026-04-29 02:00 34.35195 -115.51818 23972 ft 389 kts 207°
2026-04-29 02:00 34.32789 -115.53158 23970 ft 381 kts 218°
2026-04-29 02:00 34.30689 -115.55083 23982 ft 376 kts 227°
2026-04-29 02:01 34.28777 -115.57268 23980 ft 376 kts 227°
2026-04-29 02:01 34.26874 -115.59394 23980 ft 375 kts 227°
2026-04-29 02:01 34.24965 -115.61529 23978 ft 374 kts 227°
2026-04-29 02:01 34.23054 -115.63704 23980 ft 375 kts 227°
2026-04-29 02:02 34.21160 -115.65842 23977 ft 381 kts 228°
2026-04-29 02:02 34.19191 -115.68042 23980 ft 385 kts 227°
2026-04-29 02:02 34.17231 -115.70234 23981 ft 381 kts 228°
2026-04-29 02:02 34.15327 -115.72396 23973 ft 379 kts 228°
2026-04-29 02:03 34.13384 -115.74570 23976 ft 382 kts 227°
2026-04-29 02:03 34.11190 -115.76454 23980 ft 391 kts 215°
2026-04-29 02:03 34.08645 -115.77744 23992 ft 401 kts 203°
2026-04-29 02:03 34.05934 -115.78546 24005 ft 405 kts 201°
2026-04-29 02:04 34.03179 -115.79353 24002 ft 405 kts 201°
2026-04-29 02:04 34.00472 -115.80166 23992 ft 404 kts 201°
2026-04-29 02:04 33.97735 -115.80955 23996 ft 404 kts 201°
2026-04-29 02:04 33.94980 -115.81750 23990 ft 405 kts 201°
2026-04-29 02:05 33.92269 -115.82557 23995 ft 404 kts 201°
2026-04-29 02:05 33.89526 -115.83367 23974 ft 403 kts 201°
2026-04-29 02:05 33.86792 -115.84160 23969 ft 402 kts 201°
2026-04-29 02:05 33.84089 -115.84950 23979 ft 401 kts 201°
2026-04-29 02:06 33.81369 -115.85749 23963 ft 403 kts 201°
2026-04-29 02:06 33.78633 -115.86551 23968 ft 403 kts 201°
2026-04-29 02:06 33.75940 -115.87336 23961 ft 403 kts 201°
2026-04-29 02:06 33.73212 -115.88125 23960 ft 402 kts 201°
2026-04-29 02:07 33.70469 -115.88928 23953 ft 403 kts 201°
2026-04-29 02:07 33.67739 -115.89736 23952 ft 404 kts 201°
2026-04-29 02:07 33.65028 -115.90518 23951 ft 403 kts 201°
2026-04-29 02:07 33.62300 -115.91304 23957 ft 403 kts 201°
2026-04-29 02:08 33.59549 -115.92112 23959 ft 405 kts 201°
2026-04-29 02:08 33.56831 -115.92904 23956 ft 405 kts 201°
2026-04-29 02:08 33.54187 -115.93867 23948 ft 394 kts 211°
2026-04-29 02:08 33.51826 -115.95472 23968 ft 385 kts 222°
2026-04-29 02:09 33.49814 -115.97592 23688 ft 385 kts 233°
2026-04-29 02:09 33.48202 -116.00132 23339 ft 378 kts 239°
2026-04-29 02:09 33.46730 -116.02698 22950 ft 375 kts 239°
2026-04-29 02:09 33.45235 -116.05253 22552 ft 371 kts 239°
2026-04-29 02:10 33.43779 -116.07766 22163 ft 370 kts 239°
2026-04-29 02:10 33.42305 -116.10320 21771 ft 370 kts 238°
2026-04-29 02:10 33.40844 -116.12823 21398 ft 369 kts 238°
2026-04-29 02:10 33.39371 -116.15352 21018 ft 367 kts 238°
2026-04-29 02:11 33.37913 -116.17854 20721 ft 364 kts 238°
2026-04-29 02:11 33.36483 -116.20329 20322 ft 367 kts 237°
2026-04-29 02:11 33.34994 -116.22842 19958 ft 368 kts 234°
2026-04-29 02:11 33.33223 -116.24986 19595 ft 361 kts 221°
2026-04-29 02:12 33.31124 -116.26545 19242 ft 348 kts 210°
2026-04-29 02:12 33.28987 -116.27771 18970 ft 330 kts 210°
2026-04-29 02:12 33.26980 -116.28976 18696 ft 324 kts 211°
2026-04-29 02:12 33.24950 -116.30177 18441 ft 327 kts 209°
2026-04-29 02:13 33.22880 -116.31371 18183 ft 330 kts 209°
2026-04-29 02:13 33.20832 -116.32569 17903 ft 330 kts 210°
2026-04-29 02:13 33.18765 -116.33785 17618 ft 331 kts 210°
2026-04-29 02:13 33.16684 -116.35001 17338 ft 331 kts 209°
2026-04-29 02:14 33.14640 -116.36197 17056 ft 329 kts 210°
2026-04-29 02:14 33.12580 -116.37404 16779 ft 329 kts 209°
2026-04-29 02:14 33.10542 -116.38591 16533 ft 327 kts 209°
2026-04-29 02:14 33.08499 -116.39779 16258 ft 325 kts 209°
2026-04-29 02:15 33.06467 -116.40970 15984 ft 324 kts 210°
2026-04-29 02:15 33.04441 -116.42154 15712 ft 322 kts 209°
2026-04-29 02:15 33.02456 -116.43302 15457 ft 321 kts 209°
2026-04-29 02:15 33.00427 -116.44454 15144 ft 323 kts 205°
2026-04-29 02:16 32.98291 -116.45286 14684 ft 325 kts 200°
2026-04-29 02:16 32.96117 -116.46035 14220 ft 321 kts 201°
2026-04-29 02:16 32.94014 -116.46813 13748 ft 318 kts 201°
2026-04-29 02:16 32.91898 -116.47616 13223 ft 316 kts 201°
2026-04-29 02:17 32.89825 -116.48367 12695 ft 291 kts 200°
2026-04-29 02:17 32.87970 -116.49036 12147 ft 287 kts 201°
2026-04-29 02:17 32.85962 -116.49802 11995 ft 309 kts 201°
2026-04-29 02:17 32.83930 -116.50542 11984 ft 298 kts 200°
2026-04-29 02:18 32.82011 -116.51225 11846 ft 283 kts 201°
2026-04-29 02:18 32.80085 -116.51953 11132 ft 290 kts 201°
2026-04-29 02:18 32.78145 -116.52670 10408 ft 292 kts 200°
2026-04-29 02:18 32.76207 -116.53368 9694 ft 294 kts 199°
2026-04-29 02:19 32.74242 -116.54079 8936 ft 294 kts 199°
2026-04-29 02:19 32.72306 -116.54793 8199 ft 294 kts 199°
2026-04-29 02:19 32.70327 -116.55524 7461 ft 294 kts 199°
2026-04-29 02:19 32.68439 -116.56205 7280 ft 275 kts 199°
2026-04-29 02:20 32.66645 -116.56879 7175 ft 271 kts 202°
2026-04-29 02:20 32.65129 -116.58168 6686 ft 273 kts 231°
2026-04-29 02:20 32.64219 -116.60099 6443 ft 263 kts 253°
2026-04-29 02:20 32.63914 -116.62253 6416 ft 266 kts 262°
2026-04-29 02:21 32.63665 -116.64435 6400 ft 270 kts 261°
2026-04-29 02:21 32.63407 -116.66645 6395 ft 270 kts 262°
2026-04-29 02:21 32.63191 -116.68834 6379 ft 269 kts 262°
2026-04-29 02:21 32.62959 -116.71048 6366 ft 267 kts 261°
2026-04-29 02:22 32.62709 -116.73220 6372 ft 268 kts 262°
2026-04-29 02:22 32.62556 -116.74660 6368 ft 260 kts 262°
2026-04-29 02:22 32.62105 -116.77415 6370 ft 256 kts 258°
2026-04-29 02:22 32.61795 -116.79518 6327 ft 262 kts 260°
2026-04-29 02:23 32.61598 -116.80944 6061 ft 263 kts 259°
2026-04-29 02:23 32.61151 -116.83748 5563 ft 256 kts 258°
2026-04-29 02:23 32.60927 -116.85123 5310 ft 253 kts 258°
2026-04-29 02:23 32.60609 -116.87178 4919 ft 250 kts 259°
2026-04-29 02:24 32.60290 -116.89224 4538 ft 251 kts 258°
2026-04-29 02:24 32.59959 -116.91254 4171 ft 254 kts 258°
2026-04-29 02:24 32.59633 -116.93323 3802 ft 253 kts 259°
2026-04-29 02:25 32.59022 -116.97189 3106 ft 224 kts 259°
2026-04-29 02:25 32.58734 -116.99004 2928 ft 223 kts 260°
2026-04-29 02:25 32.58450 -117.00817 2891 ft 227 kts 260°
2026-04-29 02:25 32.58170 -117.02538 2867 ft 195 kts 259°
2026-04-29 02:26 32.57924 -117.04100 2866 ft 194 kts 260°
2026-04-29 02:26 32.57675 -117.05672 2892 ft 198 kts 259°
2026-04-29 02:26 32.57416 -117.07278 2893 ft 198 kts 260°
2026-04-29 02:26 32.57164 -117.08885 2893 ft 198 kts 260°
2026-04-29 02:27 32.56903 -117.10500 2894 ft 198 kts 260°
2026-04-29 02:27 32.56940 -117.12094 2873 ft 196 kts 292°
2026-04-29 02:27 32.57713 -117.13400 2734 ft 193 kts 318°
2026-04-29 02:27 32.58887 -117.14093 2494 ft 191 kts 348°
2026-04-29 02:28 32.60210 -117.14341 2224 ft 192 kts 350°
2026-04-29 02:28 32.61504 -117.14679 1959 ft 188 kts 346°
2026-04-29 02:28 32.62797 -117.14976 1699 ft 188 kts 349°
2026-04-29 02:28 32.64090 -117.15183 1430 ft 190 kts 355°
2026-04-29 02:29 32.65415 -117.15272 1164 ft 190 kts 353°
2026-04-29 02:29 32.66634 -117.15787 884 ft 186 kts 321°
2026-04-29 02:29 32.67497 -117.16940 667 ft 186 kts 302°
2026-04-29 02:29 32.68150 -117.18190 511 ft 174 kts 302°
2026-04-29 02:30 32.68773 -117.19377 240 ft 164 kts 302°
2026-04-29 02:30 32.69355 -117.20473 41 ft 143 kts 302°
2026-04-29 02:30 32.69780 -117.21268 29 ft 75 kts 302°
2026-04-29 02:30 32.69969 -117.21619 23 ft 41 kts 303°
2026-04-29 02:31 32.70103 -117.21875 24 ft 25 kts 301°
2026-04-29 02:31 32.70147 -117.21905 25 ft 7 kts 11°
2026-04-29 02:31 32.70198 -117.21867 23 ft 15 kts 55°
2026-04-29 02:31 32.70144 -117.21716 25 ft 27 kts 119°
2026-04-29 02:32 32.70032 -117.21499 26 ft 34 kts 122°
2026-04-29 02:32 32.69905 -117.21258 28 ft 35 kts 122°
2026-04-29 02:32 32.69787 -117.21033 29 ft 29 kts 123°
2026-04-29 02:32 32.69729 -117.20889 28 ft 8 kts 54°
2026-04-29 02:33 32.69809 -117.20827 30 ft 15 kts 22°
2026-04-29 02:33 32.69909 -117.20750 31 ft 19 kts 27°
2026-04-29 02:33 32.69930 -117.20678 32 ft 10 kts 121°
2026-04-29 02:33 32.69903 -117.20627 32 ft 0 kts 122°
2026-04-29 02:34 32.69882 -117.20589 31 ft 0 kts 122°